{"data":{"norad_id":65469,"intl_designator":"2025-195M","name":"STARLINK-34924","alt_names":[],"object_type":"PAYLOAD","status":"ACTIVE","operator":null,"country":"US","launch_date":"2025-09-03","launch_site_code":"AFETR","launch_vehicle":null,"mission":null,"orbit_class":"UNKNOWN","rcs_meters":null,"size_class":null,"mass_kg":null,"dimensions":null,"purposes":["comms"],"wikipedia_slug":null,"has_3d_model":false,"image_url":null,"decayed_at":null,"tle_current":{"epoch":"2026-09-20T04:16:03.270432Z","epoch_age_seconds":142745,"freshness":"FRESH","line1":"1 65469U 25195M   26263.17781563  .00007080  00000+0  22050-3 0  9995","line2":"2 65469  53.1587  71.0466 0001325  75.8704 284.2446 15.34398422 59822","mean_motion":15.34398422,"eccentricity":0.0001325,"inclination_deg":53.1587,"raan_deg":71.0466,"arg_perigee_deg":75.8704,"mean_anomaly_deg":284.2446,"bstar":0.0002205,"rev_number":5982,"period_min":93.847854595878,"perigee_km":461.8015184064,"apogee_km":463.61434231295,"semimajor_km":6840.8449303597,"source":"CELESTRAK","updated_at":"2026-09-21T09:00:35.616130Z"}}}